Current Weather Conditions: station 62129

sailwx.info

Wind from 160 at 17 knots

Air temperature 13.0° C
Dewpoint 11.1° C

Last reported at 2019-Sep-21 20:00 UTC.
Time now 2019-Sep-21 21:24 UTC

Location: N 58°24' E 000°18'.
View on Google Maps.

See reports from other nearby stations

  
Tides and Currents Weather Stations Pressure Air Temp Water Temp Dewpoint Dewpoint Depression Visibility Wind Speed Wind Dir Waves Ship Positions
date/time (UTC)wind fromknots sea level pressurealtimeterstation pressurevisibilityair tempwater tempwave heightnotes
2019-Sep-21 20:00 160 17 13.0
2019-Sep-21 19:00 150 20 13.7
2019-Sep-21 18:00 160 18 12.8
2019-Sep-21 17:00 170 21 13.1
2019-Sep-21 16:00 160 20 13.4
2019-Sep-21 15:00 160 20 13.8
2019-Sep-21 14:00 160 19 13.9
2019-Sep-21 13:00 160 19 13.9
2019-Sep-21 12:00 170 18 13.8
2019-Sep-21 11:00 190 19 13.0
2019-Sep-21 10:00 180 18 13.6
2019-Sep-21 09:00 180 17 13.4
2019-Sep-21 08:00 190 17 13.2
2019-Sep-21 07:00 200 18 12.9
2019-Sep-21 06:00 200 17 12.8
2019-Sep-21 05:00 200 18 12.8
2019-Sep-21 04:00 200 19 12.9
2019-Sep-21 03:00 200 20 12.9
2019-Sep-21 02:00 200 18 12.9
2019-Sep-21 01:00 190 18 12.9
2019-Sep-21 00:00 190 17 12.9
2019-Sep-20 23:00 190 18 12.7
2019-Sep-20 22:00 190 17 12.7
2019-Sep-20 21:00 190 14 12.6
2019-Sep-20 20:00 180 13 12.5
2019-Sep-20 19:00 180 12 12.4
2019-Sep-20 18:00 180 11 12.6
2019-Sep-20 17:00 180 8 12.9
2019-Sep-20 16:00 200 8 13.1
2019-Sep-20 15:00 210 11 13.1
2019-Sep-20 14:00 220 8 12.0
2019-Sep-20 13:00 220 12 11.8
2019-Sep-20 12:00 210 11 11.1
2019-Sep-20 11:00 200 9 10.8
2019-Sep-20 10:00 210 8 10.9
2019-Sep-20 09:00 200 7 10.9
2019-Sep-20 08:00 190 6 10.7
2019-Sep-20 07:00 190 6 10.4
2019-Sep-20 06:00 180 6 10.2
2019-Sep-20 05:00 200 6 10.4
2019-Sep-20 04:00 220 5 11.6
2019-Sep-20 03:00 230 6 12.2
2019-Sep-20 02:00 250 6 12.1
2019-Sep-20 01:00 250 6 12.1
2019-Sep-20 00:00 260 7 12.2
2019-Sep-19 23:00
2019-Sep-19 22:00 280 7 12.0
2019-Sep-19 21:00 290 7 11.7